| time (UTC) | temp F | wind direction | speed MPH | gust MPH | rain 1hr in | rain 24hr in | rain mn in | humidity % | barometer mb |
| 20260502220523 | 53 | 0 | 1.0 | 4.0 | 0.00 | 0.01 | 0.01 | 94 | 1011.5 |
| 20260502220035 | 53 | 39 | 2.0 | 4.0 | 0.00 | 0.01 | 0.01 | 94 | 1011.5 |
| 20260502215522 | 53 | 39 | 2.0 | 4.0 | 0.00 | 0.01 | 0.01 | 94 | 1011.5 |
| 20260502215022 | 53 | 39 | 1.0 | 4.0 | 0.00 | 0.01 | 0.01 | 94 | 1011.5 |
| 20260502214546 | 53 | 40 | 2.0 | 6.0 | 0.00 | 0.01 | 0.01 | 94 | 1011.5 |
| 20260502214224 | 53 | 40 | 3.0 | 6.0 | 0.00 | 0.01 | 0.01 | 94 | 1011.5 |
| 20260502213521 | 53 | 41 | 2.0 | 7.0 | 0.00 | 0.01 | 0.01 | 93 | 1011.5 |
| 20260502213046 | 54 | 42 | 2.0 | 7.0 | 0.00 | 0.01 | 0.01 | 93 | 1011.5 |
| 20260502212521 | 54 | 58 | 1.0 | 5.0 | 0.00 | 0.01 | 0.01 | 93 | 1011.6 |
| 20260502212019 | 54 | 58 | 2.0 | 5.0 | 0.00 | 0.01 | 0.01 | 93 | 1011.7 |
| 20260502211539 | 54 | 0 | 0.0 | 4.0 | 0.00 | 0.01 | 0.01 | 93 | 1011.7 |
| 20260502211021 | 54 | 59 | 1.0 | 4.0 | 0.00 | 0.01 | 0.01 | 93 | 1011.7 |
| 20260502210526 | 54 | 59 | 1.0 | 4.0 | 0.00 | 0.01 | 0.01 | 93 | 1011.9 |
| 20260502210035 | 54 | 59 | 1.0 | 5.0 | 0.00 | 0.01 | 0.01 | 93 | 1011.9 |
| 20260502205521 | 54 | 0 | 1.0 | 5.0 | 0.00 | 0.01 | 0.01 | 92 | 1012.0 |
| 20260502205023 | 54 | 0 | 0.0 | 4.0 | 0.00 | 0.01 | 0.01 | 92 | 1012.0 |
| 20260502204541 | 54 | 0 | 0.0 | 4.0 | 0.00 | 0.01 | 0.01 | 92 | 1012.0 |
| 20260502204023 | 55 | 0 | 1.0 | 3.0 | 0.00 | 0.01 | 0.01 | 92 | 1012.1 |
| 20260502203522 | 55 | 0 | 0.0 | 3.0 | 0.00 | 0.01 | 0.01 | 91 | 1012.1 |
| 20260502203049 | 55 | 60 | 1.0 | 3.0 | 0.00 | 0.01 | 0.01 | 91 | 1012.2 |
| 20260502202523 | 55 | 60 | 1.0 | 3.0 | 0.00 | 0.01 | 0.01 | 91 | 1012.3 |
| 20260502202021 | 55 | 60 | 1.0 | 3.0 | 0.00 | 0.01 | 0.01 | 90 | 1012.3 |
| 20260502201542 | 55 | 0 | 0.0 | 3.0 | 0.00 | 0.01 | 0.01 | 90 | 1012.3 |
| 20260502201026 | 55 | 0 | 0.0 | 3.0 | 0.00 | 0.01 | 0.01 | 89 | 1012.3 |
| 20260502200518 | 55 | 60 | 0.0 | 1.0 | 0.00 | 0.01 | 0.01 | 89 | 1012.5 |
| 20260502200038 | 56 | 0 | 0.0 | 1.0 | 0.00 | 0.01 | 0.01 | 88 | 1012.4 |
| 20260502195522 | 56 | 0 | 0.0 | 2.0 | 0.00 | 0.01 | 0.01 | 88 | 1012.4 |
| 20260502195021 | 56 | 0 | 0.0 | 3.0 | 0.00 | 0.01 | 0.01 | 88 | 1012.5 |
| 20260502194536 | 56 | 0 | 0.0 | 3.0 | 0.00 | 0.01 | 0.01 | 87 | 1012.5 |
| 20260502194023 | 56 | 0 | 0.0 | 2.0 | 0.00 | 0.01 | 0.01 | 86 | 1012.5 |
| 20260502193527 | 57 | 0 | 0.0 | 1.0 | 0.00 | 0.01 | 0.01 | 86 | 1012.5 |
| 20260502193055 | 57 | 0 | 0.0 | 3.0 | 0.00 | 0.01 | 0.01 | 85 | 1012.6 |
| 20260502192523 | 57 | 0 | 0.0 | 3.0 | 0.00 | 0.01 | 0.01 | 85 | 1012.4 |
| 20260502192022 | 57 | 60 | 0.0 | 3.0 | 0.00 | 0.01 | 0.01 | 84 | 1012.5 |
| 20260502191541 | 58 | 60 | 1.0 | 3.0 | 0.00 | 0.01 | 0.01 | 84 | 1012.4 |
| 20260502191022 | 58 | 60 | 1.0 | 3.0 | 0.00 | 0.01 | 0.01 | 83 | 1012.4 |
| 20260502190522 | 58 | 0 | 0.0 | 3.0 | 0.00 | 0.00 | 0.00 | 82 | 1012.5 |
| 20260502190044 | 58 | 60 | 0.0 | 4.0 | 0.00 | 0.00 | 0.00 | 81 | 1012.5 |
| 20260502185522 | 59 | 60 | 2.0 | 4.0 | 0.00 | 0.00 | 0.00 | 80 | 1012.4 |
| 20260502185022 | 59 | 60 | 0.0 | 3.0 | 0.00 | 0.00 | 0.00 | 79 | 1012.4 |
| 20260502184544 | 59 | 0 | 1.0 | 3.0 | 0.00 | 0.00 | 0.00 | 78 | 1012.4 |
| 20260502184022 | 59 | 60 | 1.0 | 4.0 | 0.00 | 0.00 | 0.00 | 77 | 1012.3 |
| 20260502183523 | 60 | 60 | 1.0 | 7.0 | 0.00 | 0.00 | 0.00 | 76 | 1012.2 |
| 20260502183035 | 60 | 60 | 1.0 | 7.0 | 0.00 | 0.00 | 0.00 | 75 | 1012.2 |
| 20260502182522 | 60 | 63 | 2.0 | 4.0 | 0.00 | 0.00 | 0.00 | 74 | 1012.2 |
| 20260502182022 | 61 | 91 | 2.0 | 6.0 | 0.00 | 0.00 | 0.00 | 72 | 1012.2 |
| 20260502181544 | 61 | 91 | 3.0 | 6.0 | 0.00 | 0.00 | 0.00 | 70 | 1012.1 |
| 20260502181022 | 61 | 0 | 0.0 | 2.0 | 0.00 | 0.00 | 0.00 | 67 | 1012.3 |
| 20260502180522 | 61 | 97 | 0.0 | 2.0 | 0.00 | 0.00 | 0.00 | 67 | 1012.2 |
| 20260502164022 | 63 | 116 | 2.0 | 7.0 | 0.00 | 0.01 | 0.00 | 62 | 1012.7 |
| 20260502163522 | 64 | 126 | 3.0 | 7.0 | 0.00 | 0.01 | 0.00 | 62 | 1012.8 |
| 20260502163035 | 64 | 180 | 2.0 | 6.0 | 0.00 | 0.01 | 0.00 | 62 | 1012.7 |
| 20260502162524 | 64 | 116 | 2.0 | 6.0 | 0.00 | 0.01 | 0.00 | 61 | 1012.7 |
| 20260502162022 | 64 | 106 | 2.0 | 6.0 | 0.00 | 0.01 | 0.00 | 63 | 1012.7 |
| 20260502161536 | 64 | 106 | 1.0 | 6.0 | 0.00 | 0.01 | 0.00 | 62 | 1012.8 |
| 20260502161021 | 65 | 106 | 2.0 | 6.0 | 0.00 | 0.01 | 0.00 | 63 | 1012.9 |
| 20260502160521 | 65 | 114 | 2.0 | 6.0 | 0.00 | 0.01 | 0.00 | 62 | 1012.9 |
| 20260502152021 | 66 | 162 | 2.0 | 6.0 | 0.00 | 0.02 | 0.00 | 59 | 1013.5 |
| 20260502151547 | 66 | 126 | 1.0 | 7.0 | 0.00 | 0.02 | 0.00 | 58 | 1013.5 |
| 20260502151021 | 66 | 109 | 0.0 | 8.0 | 0.00 | 0.02 | 0.00 | 58 | 1013.5 |
| 20260502150522 | 66 | 112 | 3.0 | 8.0 | 0.00 | 0.02 | 0.00 | 60 | 1013.5 |
| 20260502130523 | 67 | 167 | 2.0 | 7.0 | 0.00 | 0.01 | 0.00 | 61 | 1014.8 |
| 20260502123521 | 66 | 83 | 3.0 | 10.0 | 0.00 | 0.01 | 0.00 | 60 | 1015.1 |
| 20260502123042 | 66 | 80 | 2.0 | 10.0 | 0.00 | 0.01 | 0.00 | 62 | 1015.2 |
| 20260502122522 | 65 | 81 | 3.0 | 10.0 | 0.00 | 0.01 | 0.00 | 66 | 1015.4 |
| 20260502122025 | 65 | 99 | 3.0 | 9.0 | 0.00 | 0.01 | 0.00 | 67 | 1015.3 |
| 20260502121541 | 65 | 105 | 1.0 | 9.0 | 0.00 | 0.01 | 0.00 | 66 | 1015.4 |
| 20260502121021 | 64 | 105 | 2.0 | 9.0 | 0.00 | 0.01 | 0.00 | 65 | 1015.4 |
| 20260502120522 | 64 | 104 | 3.0 | 9.0 | 0.00 | 0.01 | 0.00 | 68 | 1015.6 |
| 20260502115521 | 63 | 0 | 2.0 | 9.0 | 0.00 | 0.01 | 0.00 | 66 | 1015.7 |
| 20260502115021 | 63 | 147 | 4.0 | 9.0 | 0.00 | 0.01 | 0.00 | 67 | 1015.8 |
| 20260502114541 | 63 | 71 | 2.0 | 8.0 | 0.00 | 0.01 | 0.00 | 69 | 1015.9 |
| 20260502114026 | 62 | 53 | 2.0 | 8.0 | 0.00 | 0.01 | 0.00 | 69 | 1015.8 |
| 20260502113522 | 62 | 2 | 2.0 | 6.0 | 0.00 | 0.01 | 0.00 | 70 | 1015.9 |
| 20260502113042 | 62 | 143 | 0.0 | 4.0 | 0.00 | 0.01 | 0.00 | 69 | 1016.0 |
| 20260502112521 | 62 | 143 | 2.0 | 8.0 | 0.00 | 0.01 | 0.00 | 68 | 1016.0 |
| 20260502112026 | 62 | 142 | 3.0 | 10.0 | 0.00 | 0.01 | 0.00 | 68 | 1016.1 |
| 20260502111535 | 62 | 148 | 4.0 | 10.0 | 0.00 | 0.01 | 0.00 | 69 | 1016.1 |
| 20260502111022 | 62 | 121 | 4.0 | 8.0 | 0.00 | 0.01 | 0.00 | 72 | 1016.1 |
| 20260502110520 | 62 | 121 | 2.0 | 7.0 | 0.00 | 0.01 | 0.00 | 67 | 1016.0 |
| 20260502110038 | 62 | 122 | 3.0 | 7.0 | 0.00 | 0.01 | 0.00 | 72 | 1016.0 |
| 20260502105521 | 61 | 120 | 2.0 | 7.0 | 0.00 | 0.01 | 0.00 | 70 | 1016.0 |
| 20260502105021 | 61 | 120 | 2.0 | 7.0 | 0.00 | 0.01 | 0.00 | 72 | 1016.1 |
| 20260502104543 | 61 | 124 | 1.0 | 9.0 | 0.00 | 0.01 | 0.00 | 73 | 1016.2 |
| 20260502104021 | 61 | 122 | 3.0 | 9.0 | 0.00 | 0.01 | 0.00 | 73 | 1016.3 |
| 20260502103521 | 60 | 122 | 4.0 | 9.0 | 0.00 | 0.01 | 0.00 | 75 | 1016.2 |
| 20260502103042 | 60 | 129 | 3.0 | 5.0 | 0.00 | 0.01 | 0.00 | 79 | 1016.2 |
| 20260502102521 | 59 | 124 | 1.0 | 7.0 | 0.00 | 0.01 | 0.00 | 77 | 1016.3 |
| 20260502102022 | 59 | 126 | 1.0 | 7.0 | 0.00 | 0.01 | 0.00 | 78 | 1016.3 |
| 20260502101541 | 59 | 134 | 1.0 | 3.0 | 0.00 | 0.01 | 0.00 | 79 | 1016.4 |
| 20260502101021 | 58 | 118 | 1.0 | 4.0 | 0.00 | 0.01 | 0.00 | 80 | 1016.3 |
| 20260502100522 | 58 | 118 | 1.0 | 4.0 | 0.00 | 0.01 | 0.00 | 78 | 1016.4 |
| 20260502091024 | 55 | 274 | 2.0 | 6.0 | 0.00 | 0.01 | 0.00 | 89 | 1017.2 |
| 20260502090521 | 55 | 0 | 1.0 | 4.0 | 0.00 | 0.01 | 0.00 | 91 | 1017.1 |
| 20260502071535 | 46 | 115 | 2.0 | 7.0 | 0.00 | 0.01 | 0.00 | 98 | 1017.6 |
| 20260502071022 | 46 | 0 | 1.0 | 7.0 | 0.00 | 0.01 | 0.00 | 97 | 1017.5 |
| 20260502070522 | 45 | 110 | 2.0 | 7.0 | 0.00 | 0.01 | 0.00 | 97 | 1017.5 |
| 20260502070101 | 45 | 111 | 2.0 | 4.0 | 0.00 | 0.01 | 0.00 | 97 | 1017.5 |
| 20260502065522 | 44 | 110 | 2.0 | 5.0 | 0.00 | 0.01 | 0.00 | 97 | 1017.4 |
| 20260502065024 | 44 | 110 | 2.0 | 5.0 | 0.00 | 0.01 | 0.00 | 97 | 1017.4 |
| 20260502064546 | 44 | 110 | 3.0 | 5.0 | 0.00 | 0.01 | 0.00 | 97 | 1017.3 |
| 20260502064021 | 44 | 109 | 2.0 | 4.0 | 0.00 | 0.01 | 0.00 | 97 | 1017.4 |
| 20260502063521 | 44 | 110 | 1.0 | 4.0 | 0.00 | 0.01 | 0.00 | 96 | 1017.3 |
| 20260502063041 | 44 | 109 | 2.0 | 4.0 | 0.00 | 0.01 | 0.00 | 96 | 1017.3 |
| 20260502062521 | 43 | 126 | 1.0 | 4.0 | 0.00 | 0.01 | 0.00 | 97 | 1017.3 |
| 20260502062021 | 43 | 156 | 2.0 | 4.0 | 0.00 | 0.01 | 0.00 | 96 | 1017.3 |
| 20260502061540 | 43 | 194 | 0.0 | 3.0 | 0.00 | 0.01 | 0.00 | 96 | 1017.3 |
| 20260502061022 | 43 | 203 | 1.0 | 3.0 | 0.00 | 0.01 | 0.00 | 96 | 1017.3 |
| 20260502060520 | 43 | 116 | 1.0 | 3.0 | 0.00 | 0.01 | 0.00 | 96 | 1017.4 |
| 20260502060042 | 43 | 116 | 1.0 | 3.0 | 0.00 | 0.01 | 0.00 | 96 | 1017.4 |
| 20260502055522 | 42 | 116 | 0.0 | 3.0 | 0.00 | 0.01 | 0.00 | 96 | 1017.4 |
| 20260502055022 | 42 | 112 | 0.0 | 3.0 | 0.00 | 0.01 | 0.00 | 96 | 1017.3 |
| 20260502054544 | 42 | 108 | 1.0 | 3.0 | 0.00 | 0.01 | 0.00 | 96 | 1017.4 |
| 20260502054023 | 42 | 0 | 1.0 | 3.0 | 0.00 | 0.01 | 0.00 | 96 | 1017.3 |
| 20260502053521 | 42 | 83 | 0.0 | 3.0 | 0.00 | 0.01 | 0.00 | 96 | 1017.4 |
| 20260502053044 | 42 | 109 | 0.0 | 3.0 | 0.00 | 0.01 | 0.00 | 95 | 1017.2 |
| 20260502052524 | 42 | 0 | 0.0 | 2.0 | 0.00 | 0.01 | 0.00 | 95 | 1017.3 |
| 20260502052025 | 42 | 110 | 0.0 | 2.0 | 0.00 | 0.01 | 0.00 | 95 | 1017.2 |
| 20260502051547 | 42 | 106 | 0.0 | 2.0 | 0.00 | 0.01 | 0.00 | 95 | 1017.2 |
| 20260502051021 | 42 | 0 | 0.0 | 4.0 | 0.00 | 0.01 | 0.00 | 95 | 1017.2 |
| 20260502050521 | 42 | 117 | 1.0 | 4.0 | 0.00 | 0.01 | 0.00 | 95 | 1017.3 |
| 20260502050042 | 42 | 159 | 2.0 | 4.0 | 0.00 | 0.01 | 0.00 | 95 | 1017.2 |
| 20260502045522 | 42 | 279 | 0.0 | 2.0 | 0.00 | 0.01 | 0.00 | 95 | 1017.2 |
| 20260502045020 | 42 | 0 | 1.0 | 2.0 | 0.00 | 0.01 | 0.00 | 95 | 1017.3 |
| 20260502044535 | 42 | 279 | 0.0 | 3.0 | 0.00 | 0.01 | 0.00 | 95 | 1017.2 |
| 20260502044022 | 42 | 279 | 0.0 | 3.0 | 0.00 | 0.01 | 0.00 | 95 | 1017.1 |
| 20260502043521 | 42 | 279 | 0.0 | 4.0 | 0.00 | 0.01 | 0.00 | 95 | 1017.1 |
| 20260502043046 | 42 | 279 | 2.0 | 4.0 | 0.00 | 0.01 | 0.00 | 95 | 1017.2 |
| 20260502042524 | 43 | 270 | 0.0 | 2.0 | 0.00 | 0.01 | 0.00 | 95 | 1017.1 |
| 20260502042023 | 43 | 0 | 0.0 | 3.0 | 0.00 | 0.01 | 0.00 | 95 | 1017.2 |
| 20260502041608 | 43 | 0 | 0.0 | 3.0 | 0.00 | 0.01 | 0.00 | 94 | 1017.1 |
| 20260502041021 | 43 | 278 | 1.0 | 3.0 | 0.00 | 0.01 | 0.00 | 95 | 1017.2 |
| 20260502040522 | 43 | 0 | 0.0 | 3.0 | 0.00 | 0.01 | 0.00 | 95 | 1017.2 |
| 20260502040054 | 43 | 278 | 1.0 | 3.0 | 0.00 | 0.01 | 0.00 | 95 | 1017.3 |
| 20260502035522 | 43 | 0 | 1.0 | 3.0 | 0.00 | 0.01 | 0.00 | 94 | 1017.4 |
| 20260502035021 | 43 | 278 | 1.0 | 3.0 | 0.00 | 0.01 | 0.00 | 94 | 1017.4 |
| 20260502034545 | 43 | 0 | 0.0 | 3.0 | 0.00 | 0.01 | 0.00 | 94 | 1017.4 |
| 20260502034022 | 44 | 278 | 0.0 | 3.0 | 0.00 | 0.01 | 0.00 | 95 | 1017.4 |
| 20260502033523 | 44 | 278 | 1.0 | 3.0 | 0.00 | 0.01 | 0.00 | 95 | 1017.4 |
| 20260502033040 | 44 | 278 | 1.0 | 3.0 | 0.00 | 0.01 | 0.00 | 95 | 1017.3 |
| 20260502032523 | 44 | 0 | 0.0 | 2.0 | 0.00 | 0.01 | 0.00 | 95 | 1017.4 |
| 20260502032023 | 44 | 278 | 0.0 | 2.0 | 0.00 | 0.01 | 0.00 | 95 | 1017.5 |
| 20260502031543 | 44 | 278 | 0.0 | 2.0 | 0.00 | 0.01 | 0.00 | 95 | 1017.4 |
| 20260502031022 | 44 | 278 | 0.0 | 2.0 | 0.00 | 0.01 | 0.00 | 95 | 1017.4 |
| 20260502030523 | 44 | 0 | 0.0 | 2.0 | 0.00 | 0.01 | 0.00 | 94 | 1017.5 |
| 20260502030059 | 45 | 0 | 0.0 | 2.0 | 0.00 | 0.01 | 0.00 | 94 | 1017.5 |
| 20260502025523 | 45 | 278 | 0.0 | 3.0 | 0.00 | 0.01 | 0.00 | 95 | 1017.5 |
| 20260502025021 | 45 | 278 | 1.0 | 3.0 | 0.00 | 0.01 | 0.00 | 95 | 1017.6 |
| 20260502024552 | 45 | 278 | 1.0 | 3.0 | 0.00 | 0.01 | 0.00 | 95 | 1017.5 |
| 20260502024021 | 45 | 278 | 0.0 | 2.0 | 0.00 | 0.01 | 0.00 | 94 | 1017.6 |
| 20260502023522 | 45 | 0 | 0.0 | 1.0 | 0.00 | 0.01 | 0.00 | 94 | 1017.6 |
| 20260502023055 | 45 | 0 | 0.0 | 2.0 | 0.00 | 0.01 | 0.00 | 94 | 1017.6 |
| 20260502022524 | 45 | 0 | 0.0 | 2.0 | 0.00 | 0.01 | 0.00 | 94 | 1017.6 |
| 20260502022024 | 45 | 278 | 0.0 | 2.0 | 0.00 | 0.01 | 0.00 | 94 | 1017.5 |
| 20260502021538 | 45 | 0 | 0.0 | 2.0 | 0.00 | 0.01 | 0.00 | 94 | 1017.6 |
| 20260502021025 | 46 | 0 | 0.0 | 2.0 | 0.00 | 0.01 | 0.00 | 94 | 1017.7 |
| 20260502020523 | 46 | 278 | 1.0 | 3.0 | 0.00 | 0.01 | 0.00 | 94 | 1017.7 |
| 20260502020036 | 46 | 278 | 1.0 | 3.0 | 0.00 | 0.01 | 0.00 | 94 | 1017.7 |
| 20260502015522 | 46 | 278 | 1.0 | 2.0 | 0.00 | 0.01 | 0.00 | 94 | 1017.8 |
| 20260502015022 | 46 | 278 | 0.0 | 2.0 | 0.00 | 0.01 | 0.00 | 94 | 1017.8 |
| 20260502014539 | 46 | 0 | 0.0 | 2.0 | 0.00 | 0.01 | 0.00 | 94 | 1018.0 |
| 20260502014024 | 46 | 278 | 0.0 | 2.0 | 0.00 | 0.01 | 0.00 | 94 | 1018.1 |
| 20260502013521 | 46 | 278 | 1.0 | 2.0 | 0.00 | 0.01 | 0.00 | 94 | 1018.2 |
| 20260502013052 | 46 | 277 | 1.0 | 2.0 | 0.00 | 0.01 | 0.00 | 93 | 1018.2 |
| 20260502012521 | 46 | 0 | 0.0 | 2.0 | 0.00 | 0.01 | 0.00 | 93 | 1018.3 |
| 20260502012021 | 46 | 278 | 0.0 | 2.0 | 0.00 | 0.01 | 0.00 | 93 | 1018.2 |
| 20260502011600 | 46 | 278 | 1.0 | 2.0 | 0.00 | 0.01 | 0.00 | 93 | 1018.3 |
| 20260502011023 | 47 | 278 | 1.0 | 3.0 | 0.00 | 0.01 | 0.00 | 93 | 1018.3 |
| 20260502010522 | 47 | 0 | 1.0 | 3.0 | 0.00 | 0.01 | 0.00 | 93 | 1018.5 |
| 20260502010039 | 47 | 0 | 0.0 | 1.0 | 0.00 | 0.01 | 0.00 | 93 | 1018.5 |
| 20260502005522 | 47 | 0 | 0.0 | 2.0 | 0.00 | 0.01 | 0.00 | 93 | 1018.5 |
| 20260502005025 | 47 | 0 | 0.0 | 3.0 | 0.00 | 0.01 | 0.00 | 93 | 1018.5 |
| 20260502004539 | 47 | 278 | 0.0 | 4.0 | 0.00 | 0.01 | 0.00 | 93 | 1018.5 |
| 20260502004022 | 47 | 278 | 1.0 | 4.0 | 0.00 | 0.01 | 0.00 | 93 | 1018.5 |
| 20260502003521 | 47 | 278 | 1.0 | 3.0 | 0.00 | 0.01 | 0.00 | 93 | 1018.5 |
| 20260502003034 | 48 | 0 | 0.0 | 3.0 | 0.00 | 0.01 | 0.00 | 93 | 1018.6 |
| 20260502002524 | 48 | 278 | 0.0 | 3.0 | 0.00 | 0.01 | 0.00 | 93 | 1018.6 |
| 20260502002022 | 48 | 278 | 0.0 | 6.0 | 0.00 | 0.01 | 0.00 | 93 | 1018.6 |
| 20260502001543 | 48 | 278 | 1.0 | 6.0 | 0.00 | 0.01 | 0.00 | 93 | 1018.7 |
| 20260502001019 | 48 | 278 | 1.0 | 6.0 | 0.00 | 0.01 | 0.00 | 93 | 1018.7 |
| 20260502000521 | 48 | 278 | 2.0 | 9.0 | 0.00 | 0.01 | 0.00 | 94 | 1018.8 |
| 20260502000056 | 48 | 278 | 4.0 | 10.0 | 0.00 | 0.01 | 0.00 | 94 | 1018.8 |
| 20260501235523 | 48 | 274 | 3.0 | 10.0 | 0.00 | 0.01 | 0.00 | 94 | 1018.7 |
| 20260501235022 | 48 | 275 | 3.0 | 9.0 | 0.00 | 0.01 | 0.00 | 94 | 1018.7 |
| 20260501234541 | 48 | 85 | 1.0 | 4.0 | 0.00 | 0.01 | 0.00 | 94 | 1018.8 |
| 20260501234022 | 48 | 85 | 1.0 | 4.0 | 0.00 | 0.01 | 0.00 | 94 | 1018.8 |
| 20260501233522 | 48 | 85 | 1.0 | 4.0 | 0.00 | 0.01 | 0.00 | 94 | 1018.7 |
| 20260501233053 | 48 | 85 | 1.0 | 4.0 | 0.00 | 0.01 | 0.00 | 94 | 1018.8 |
| 20260501232522 | 48 | 83 | 2.0 | 4.0 | 0.00 | 0.01 | 0.00 | 94 | 1018.9 |
| 20260501232023 | 48 | 83 | 1.0 | 4.0 | 0.00 | 0.01 | 0.00 | 94 | 1018.9 |
| 20260501231553 | 49 | 83 | 0.0 | 4.0 | 0.00 | 0.01 | 0.00 | 94 | 1019.1 |
| 20260501231022 | 49 | 83 | 1.0 | 4.0 | 0.00 | 0.01 | 0.00 | 95 | 1019.1 |
| 20260501230523 | 49 | 82 | 1.0 | 4.0 | 0.00 | 0.01 | 0.00 | 95 | 1019.0 |
| 20260501230107 | 49 | 82 | 1.0 | 4.0 | 0.00 | 0.01 | 0.00 | 95 | 1019.0 |
| 20260501225523 | 48 | 82 | 1.0 | 4.0 | 0.00 | 0.01 | 0.01 | 95 | 1018.9 |
| 20260501225021 | 48 | 81 | 1.0 | 6.0 | 0.00 | 0.01 | 0.01 | 94 | 1019.1 |
| 20260501224555 | 48 | 81 | 0.0 | 6.0 | 0.00 | 0.01 | 0.01 | 94 | 1019.0 |
| 20260501224022 | 48 | 81 | 2.0 | 6.0 | 0.00 | 0.01 | 0.01 | 94 | 1018.9 |
| 20260501223522 | 49 | 68 | 0.0 | 3.0 | 0.00 | 0.01 | 0.01 | 94 | 1018.9 |
| 20260501223048 | 49 | 0 | 0.0 | 3.0 | 0.00 | 0.01 | 0.01 | 94 | 1019.0 |
| 20260501222522 | 49 | 0 | 1.0 | 3.0 | 0.00 | 0.01 | 0.01 | 94 | 1018.9 |
| 20260501222022 | 49 | 0 | 0.0 | 2.0 | 0.00 | 0.01 | 0.01 | 94 | 1019.0 |
| 20260501221536 | 49 | 0 | 0.0 | 2.0 | 0.00 | 0.01 | 0.01 | 94 | 1019.1 |
| 20260501221026 | 50 | 0 | 0.0 | 3.0 | 0.00 | 0.01 | 0.01 | 94 | 1019.1 |